"Pseudo-MPEC" for P11JI5l

Created 2023 Oct 1 2:22:08 UT using Find_Orb

Click here for an explanation of pseudo-MPECs

 
 Astrometry: 
     P11JI5l* C2023 09 1669WS%.sJt07(TxAstrometryvI;IP@k`S8PE7D7'7o5Wb@R+i._gF51
     P11JI5l  C2023 09 16K\jf_@`PZmB194/*oFS*1l\csg,['s`redacted;==L7fRr4t]'.F51
     P11JI5l  C2023 09 16l1$leb.vUD9NfEcmrJ05P2L=DclickQl'2UMC3?buM8PrQX^PB+HF51
     P11JI5l  C2023 09 16l;7B'd9ybDkDVFqTY7/U_j`(7:3_,(w(c;Bb#@.!w.s+BdGQ\Vj'F51
     P11JI5l 3C2023 09 18=./Twm.%jkC_g_=-m^VherekiRUk)lGssd\(r^YfG_08\p%A3fi+T14
     P11JI5l 3C2023 09 18Kyw:Q,_4x--KKC.D\gd)tubD*1fM=kLn`#E7SRx$XB2V$@an\Cm6T14
     P11JI5l 3C2023 09 18'$VTuHZi.]DSNw`UhNZBnAH#k/mL4Jcr`-ZwQgKNM,)E.KsimA0pT14
     P11JI5l 2C2023 09 26^h;G5h5_Hy1/,k`]Yfe`rH,NYIA!4k9Va`k)vQQub:[.!gg]forMT12
     P11JI5l 2C2023 09 269+3s3mC/HWa3;G$Dw/vLexplanationr6-k%G2btKHbE[Uhj#yE2T12

Station data:
(F51) Pan-STARRS 1, Haleakala  (N20.707234 W156.255910)  US/Hawaii.
   Observers J. Bulger, T. Lowe, A. Schultz, M. Willman. Measurers K.
   Chambers, S. Chastel, T. de Boer, L. Denneau, J. Fairlamb, H. Flewelling,
   M. Huber, C.-C. Lin, E. Magnier, Y. Ramanjooloo, R. Wainscoat, R. Weryk.
   1.8-m Ritchey-Chrétien + CCD.
(T12) Mauna Kea-UH/Tholen NEO Follow-Up (2.24-m)  (N19.822991 W155.469434)
   US/Hawaii.  Observer Y. Ramanjooloo. 2.24-m f/10.1 University of Hawaii
   reflector.
(T14) Mauna Kea-UH/Tholen NEO Follow-Up (CFHT)  (N19.825252 W155.468876)
   US/Hawaii.  Observer R. Weryk. 3.6-m Canada-France-Hawaii Telescope.

Orbital elements:  P11JI5l
   Perihelion 2023 Aug 21.32227 +/- 473 TT =  7:44:04 (JD 2460177.82227)
Epoch 2023 Sep 26.0 TT = JDT 2460213.5   Ju: 0.5594              AutoNEOCP
M   2.36608018 +/- 29               (J2000 ecliptic)
n   0.06631812 +/- 0.0488           Peri.  151.03840 +/- 55
a   6.04478985 +/- 2.96             Node   293.21478 +/- 2.8
e   0.2471821 +/- 0.34              Incl.   20.76476 +/- 1.6
P  14.86                   H 14.71  G  0.15   U 10.7
q 4.55062553 +/- 0.176    Q 7.53895416 +/- 5.75
From 9 observations 2023 Sept. 16-26; mean residual 0".08
Residuals in arcseconds: 
230916 F51  .09-  .17+    230916 F51  .03-  .08+    230918 T14  .01-  .00     
230916 F51  .14+  .14-    230918 T14  .01+  .02+    230926 T12  .02-  .04+    
230916 F51  .02-  .12-    230918 T14  .00   .02-    230926 T12  .02+  .04-    

Ephemerides (geocentric):
Date (UTC) HH   RA             Dec           delta  r     elong  mag " sig PA
---- --------  ------------   ------------  ------ ------ -----  --- --------
2023 10 01 02  07 00 35.425   +31 10 47.75  4.5423 4.5536  84.3 22.0 2.43  83
2023 10 01 03  07 00 36.822   +31 10 44.52  4.5417 4.5536  84.4 22.0 2.46  83
2023 10 01 04  07 00 38.217   +31 10 41.28  4.5410 4.5536  84.4 22.0 2.50  83
2023 10 01 05  07 00 39.611   +31 10 38.05  4.5404 4.5536  84.4 22.0 2.53  83
2023 10 01 06  07 00 41.003   +31 10 34.82  4.5398 4.5536  84.5 22.0 2.57  83
2023 10 01 07  07 00 42.394   +31 10 31.59  4.5392 4.5536  84.5 22.0 2.61  83
2023 10 01 08  07 00 43.784   +31 10 28.36  4.5385 4.5536  84.5 22.0 2.65  83
2023 10 01 09  07 00 45.172   +31 10 25.14  4.5379 4.5536  84.6 22.0 2.68  83
2023 10 01 10  07 00 46.559   +31 10 21.91  4.5373 4.5536  84.6 22.0 2.72  83
2023 10 01 11  07 00 47.944   +31 10 18.68  4.5367 4.5536  84.6 22.0 2.76  83
2023 10 01 12  07 00 49.328   +31 10 15.46  4.5360 4.5536  84.7 22.0 2.80  83
2023 10 01 13  07 00 50.711   +31 10 12.23  4.5354 4.5536  84.7 22.0 2.84  83
2023 10 01 14  07 00 52.092   +31 10 09.01  4.5348 4.5536  84.7 22.0 2.88  83
2023 10 01 15  07 00 53.472   +31 10 05.79  4.5342 4.5536  84.8 22.0 2.92  83
2023 10 01 16  07 00 54.850   +31 10 02.56  4.5336 4.5536  84.8 22.0 2.96  83
2023 10 01 17  07 00 56.227   +31 09 59.34  4.5329 4.5536  84.9 22.0 3.00  83
2023 10 01 18  07 00 57.603   +31 09 56.12  4.5323 4.5537  84.9 22.0 3.04  83
2023 10 01 19  07 00 58.977   +31 09 52.90  4.5317 4.5537  84.9 22.0 3.08  83
2023 10 01 20  07 01 00.349   +31 09 49.69  4.5311 4.5537  85.0 22.0 3.12  83
2023 10 01 21  07 01 01.721   +31 09 46.47  4.5304 4.5537  85.0 22.0 3.16  83
2023 10 01 22  07 01 03.091   +31 09 43.25  4.5298 4.5537  85.0 22.0 3.21  84
2023 10 01 23  07 01 04.459   +31 09 40.04  4.5292 4.5537  85.1 22.0 3.25  84
2023 10 02 00  07 01 05.826   +31 09 36.82  4.5286 4.5537  85.1 22.0 3.29  84
2023 10 02 01  07 01 07.192   +31 09 33.61  4.5279 4.5537  85.1 22.0 3.34  84
2023 10 02 02  07 01 08.556   +31 09 30.40  4.5273 4.5537  85.2 22.0 3.38  84
2023 10 02 03  07 01 09.918   +31 09 27.19  4.5267 4.5537  85.2 22.0 3.42  84
2023 10 02 04  07 01 11.280   +31 09 23.98  4.5261 4.5537  85.2 22.0 3.47  84
2023 10 02 05  07 01 12.640   +31 09 20.77  4.5255 4.5537  85.3 22.0 3.51  84
2023 10 02 06  07 01 13.998   +31 09 17.56  4.5248 4.5537  85.3 22.0 3.56  84
2023 10 02 07  07 01 15.355   +31 09 14.35  4.5242 4.5537  85.4 22.0 3.60  84
2023 10 02 08  07 01 16.711   +31 09 11.14  4.5236 4.5537  85.4 22.0 3.65  84
2023 10 02 09  07 01 18.065   +31 09 07.94  4.5230 4.5537  85.4 22.0 3.69  84
2023 10 02 10  07 01 19.418   +31 09 04.73  4.5223 4.5537  85.5 22.0 3.74  84
2023 10 02 11  07 01 20.769   +31 09 01.53  4.5217 4.5538  85.5 22.0 3.79  84
2023 10 02 12  07 01 22.119   +31 08 58.33  4.5211 4.5538  85.5 22.0 3.84  84
2023 10 02 13  07 01 23.467   +31 08 55.12  4.5205 4.5538  85.6 22.0 3.88  84
2023 10 02 14  07 01 24.814   +31 08 51.92  4.5198 4.5538  85.6 22.0 3.93  84
2023 10 02 15  07 01 26.160   +31 08 48.72  4.5192 4.5538  85.6 22.0 3.98  84
2023 10 02 16  07 01 27.504   +31 08 45.52  4.5186 4.5538  85.7 22.0 4.03  84
2023 10 02 17  07 01 28.847   +31 08 42.33  4.5180 4.5538  85.7 22.0 4.08  84
2023 10 02 18  07 01 30.188   +31 08 39.13  4.5173 4.5538  85.7 22.0 4.13  84
2023 10 02 19  07 01 31.528   +31 08 35.93  4.5167 4.5538  85.8 22.0 4.18  84
2023 10 02 20  07 01 32.867   +31 08 32.74  4.5161 4.5538  85.8 22.0 4.23  84
2023 10 02 21  07 01 34.204   +31 08 29.54  4.5155 4.5538  85.9 22.0 4.28  84
2023 10 02 22  07 01 35.539   +31 08 26.35  4.5149 4.5538  85.9 22.0 4.33  84
2023 10 02 23  07 01 36.873   +31 08 23.16  4.5142 4.5538  85.9 22.0 4.38  84
2023 10 03 00  07 01 38.206   +31 08 19.97  4.5136 4.5538  86.0 22.0 4.43  84
2023 10 03 01  07 01 39.537   +31 08 16.78  4.5130 4.5538  86.0 22.0 4.48  84